,,Stat1,,Stat2,,Stat3,,Stat4,,Wind1,,Wind1,
time,status,PR1M_SUM,status,RH1M_AVG,status,SR1M_AVG,status,TA1M_AVG,status,W1dAve1m,status,W1sAve1m,
1999-12-29, 00:00:01,VALID,0,VALID,94.4573,VALID,-0.0849042,VALID,18.9636,VALID,174,VALID,1.03043,
1999-12-29, 00:01:07,VALID,0,VALID,94.2895,VALID,-0.0849042,VALID,18.9731,VALID,181,VALID,0.979768,
1999-12-29, 00:02:00,VALID,0,VALID,94.1992,VALID,-0.0679233,VALID,18.9728,VALID,197,VALID,0.94375,
1999-12-29, 00:03:01,VALID,0,VALID,94.3632,VALID,-0.0849042,VALID,18.9472,VALID,203,VALID,0.992188,
1999-12-29, 00:04:00,VALID,0,VALID,94.5591,VALID,-0.0339617,VALID,18.902,VALID,205,VALID,0.946181,
1999-12-29, 00:05:00,VALID,0,VALID,94.7625,VALID,-0.0509425,VALID,18.8796,VALID,207,VALID,0.918791,
1999-12-29, 00:06:00,VALID,0,VALID,94.7231,VALID,-0.0509425,VALID,18.8502,VALID,219,VALID,0.891992,
1999-12-29, 00:07:00,VALID,0,VALID,95.4161,VALID,0,VALID,18.8237,VALID,221,VALID,1.15963,
1999-12-29, 00:08:00,VALID,0,VALID,96.2452,VALID,0.0169808,VALID,18.7713,VALID,219,VALID,1.04421,
1999-12-29, 00:09:00,VALID,0,VALID,96.647,VALID,0.0339617,VALID,18.7228,VALID,206,VALID,0.893159,
1999-12-29, 00:10:00,VALID,0,VALID,96.82,VALID,0.0339617,VALID,18.6681,VALID,195,VALID,0.71685,
1999-12-29, 00:11:00,VALID,0,VALID,97.2383,VALID,0,VALID,18.6422,VALID,189,VALID,0.909054,
1999-12-29, 00:12:00,VALID,0,VALID,97.1595,VALID,0.0339617,VALID,18.6099,VALID,184,VALID,0.766447,
1999-12-29, 00:13:00,VALID,0,VALID,96.8352,VALID,0.0679233,VALID,18.5974,VALID,180,VALID,0.690456,
1999-12-29, 00:14:00,VALID,0,VALID,96.9217,VALID,0.0509425,VALID,18.5582,VALID,168,VALID,0.905222,
1999-12-29, 00:15:00,VALID,0,VALID,97.3312,VALID,0.0339617,VALID,18.597,VALID,170,VALID,0.921474,
1999-12-29, 00:16:00,VALID,0,VALID,96.8721,VALID,0.0339617,VALID,18.6644,VALID,172,VALID,0.854567,
1999-12-29, 00:17:00,VALID,0,VALID,96.4181,VALID,0,VALID,18.7429,VALID,172,VALID,0.865785,
1999-12-29, 00:18:00,VALID,0,VALID,96.0176,VALID,0.0339617,VALID,18.7717,VALID,179,VALID,0.714433,
1999-12-29, 00:19:00,VALID,0,VALID,96.0138,VALID,0.0339617,VALID,18.7489,VALID,197,VALID,0.966602,
1999-12-29, 00:20:00,VALID,0,VALID,96.2071,VALID,0.0169808,VALID,18.7593,VALID,204,VALID,1.01213,
1999-12-29, 00:21:00,VALID,0,VALID,96.1142,VALID,0.0169808,VALID,18.7911,VALID,228,VALID,1.02409,
1999-12-29, 00:22:00,VALID,0,VALID,95.6476,VALID,-0.0339617,VALID,18.8401,VALID,221,VALID,1.05929,
1999-12-29, 00:23:00,VALID,0,VALID,95.4199,VALID,-0.0339617,VALID,18.8923,VALID,220,VALID,0.936678,
1999-12-29, 00:24:01,VALID,0,VALID,95.2419,VALID,-0.0339617,VALID,18.9082,VALID,224,VALID,0.981517,
1999-12-29, 00:25:01,VALID,0,VALID,95.1211,VALID,-0.0169808,VALID,18.9022,VALID,222,VALID,1.04476,
1999-12-29, 00:26:00,VALID,0,VALID,95.2139,VALID,-0.0339617,VALID,18.8666,VALID,221,VALID,1.16587,
1999-12-29, 00:27:00,VALID,0,VALID,95.364,VALID,-0.0679233,VALID,18.851,VALID,212,VALID,1.22656,
1999-12-29, 00:28:00,VALID,0,VALID,95.083,VALID,0,VALID,18.8209,VALID,217,VALID,1.27196,
1999-12-29, 00:29:00,VALID,0,VALID,94.8185,VALID,-0.0169808,VALID,18.8378,VALID,222,VALID,1.06887,
1999-12-29, 00:30:00,VALID,0,VALID,94.7587,VALID,-0.0339617,VALID,18.8341,VALID,230,VALID,0.823808,
1999-12-29, 00:31:00,VALID,0,VALID,94.7879,VALID,-0.0509425,VALID,18.841,VALID,226,VALID,0.898047,
1999-12-29, 00:32:00,VALID,0,VALID,94.8248,VALID,0,VALID,18.8316,VALID,229,VALID,0.911994,
1999-12-29, 00:33:00,VALID,0,VALID,94.7485,VALID,-0.0679233,VALID,18.8152,VALID,237,VALID,0.690456,
1999-12-29, 00:34:00,VALID,0,VALID,94.6417,VALID,-0.0169808,VALID,18.7791,VALID,237,VALID,0.573529,
1999-12-29, 00:35:00,VALID,0,VALID,94.6557,VALID,-0.0169808,VALID,18.7374,VALID,237,VALID,0.437283,
1999-12-29, 00:36:00,VALID,0,VALID,94.7905,VALID,-0.0339617,VALID,18.6856,VALID,219,VALID,0.778988,
1999-12-29, 00:37:00,VALID,0,VALID,94.9711,VALID,-0.0509425,VALID,18.6369,VALID,216,VALID,0.68565,
1999-12-29, 00:38:00,VALID,0,VALID,95.2165,VALID,-0.0169808,VALID,18.6046,VALID,200,VALID,0.775343,
1999-12-29, 00:39:00,VALID,0,VALID,95.5522,VALID,-0.0509425,VALID,18.5755,VALID,195,VALID,0.879645,
1999-12-29, 00:40:00,VALID,0,VALID,95.6208,VALID,-0.0339617,VALID,18.573,VALID,207,VALID,0.922931,
1999-12-29, 00:41:00,VALID,0,VALID,95.4555,VALID,-0.0169808,VALID,18.5914,VALID,206,VALID,0.796464,
1999-12-29, 00:42:00,VALID,0,VALID,95.3398,VALID,-0.0169808,VALID,18.624,VALID,209,VALID,0.854102,
1999-12-29, 00:43:00,VALID,0,VALID,95.0092,VALID,-0.0679233,VALID,18.6891,VALID,213,VALID,0.651182,
1999-12-29, 00:44:00,VALID,0,VALID,94.6811,VALID,-0.0339617,VALID,18.7378,VALID,216,VALID,0.509527,
1999-12-29, 00:45:00,VALID,0,VALID,94.3492,VALID,-0.0169808,VALID,18.7729,VALID,208,VALID,0.347551,
1999-12-29, 00:46:00,VALID,0,VALID,94.0631,VALID,-0.0169808,VALID,18.7891,VALID,207,VALID,0.376689,
1999-12-29, 00:47:01,VALID,0,VALID,94.1458,VALID,-0.0339617,VALID,18.7925,VALID,207,VALID,0.32492,
1999-12-29, 00:48:00,VALID,0,VALID,94.1038,VALID,-0.0169808,VALID,18.7932,VALID,207,VALID,0.133635,
1999-12-29, 00:49:00,VALID,0,VALID,93.4896,VALID,-0.0339617,VALID,18.754,VALID,206,VALID,0,
1999-12-29, 00:50:00,VALID,0,VALID,92.9225,VALID,-0.0509425,VALID,18.5884,VALID,186,VALID,0,
1999-12-29, 00:51:00,VALID,0,VALID,93.7808,VALID,-0.0169808,VALID,18.4534,VALID,170,VALID,0,
1999-12-29, 00:52:00,VALID,0,VALID,94.6354,VALID,-0.0509425,VALID,18.3892,VALID,170,VALID,0,
1999-12-29, 00:53:00,VALID,0,VALID,95.5306,VALID,-0.0679233,VALID,18.3694,VALID,176,VALID,0,
1999-12-29, 00:54:00,VALID,0,VALID,95.2737,VALID,-0.0509425,VALID,18.3368,VALID,202,VALID,0,
1999-12-29, 00:55:00,VALID,0,VALID,95.2114,VALID,-0.0509425,VALID,18.2881,VALID,211,VALID,0,
1999-12-29, 00:56:00,VALID,0,VALID,95.8574,VALID,-0.0509425,VALID,18.2724,VALID,224,VALID,0,
1999-12-29, 00:57:00,VALID,0,VALID,96.1346,VALID,0,VALID,18.2399,VALID,230,VALID,0.192925,
1999-12-29, 00:58:01,VALID,0,VALID,96.3164,VALID,-0.0169808,VALID,18.217,VALID,236,VALID,0.658253,
1999-12-29, 00:59:00,VALID,0,VALID,96.5377,VALID,-0.0169808,VALID,18.2013,VALID,234,VALID,0.52426,
1999-12-29, 01:00:00,VALID,0,VALID,96.8365,VALID,-0.0169808,VALID,18.1944,VALID,231,VALID,0.649771,
1999-12-29, 01:01:00,VALID,0,VALID,97.2803,VALID,-0.0169808,VALID,18.2207,VALID,225,VALID,0.64527,
1999-12-29, 01:02:00,VALID,0,VALID,97.4748,VALID,-0.0169808,VALID,18.2429,VALID,221,VALID,0.720753,
1999-12-29, 01:03:00,VALID,0,VALID,97.7406,VALID,0,VALID,18.3077,VALID,228,VALID,0.724507,
1999-12-29, 01:04:00,VALID,0,VALID,97.7304,VALID,-0.0169808,VALID,18.3724,VALID,229,VALID,0.523438,
1999-12-29, 01:05:00,VALID,0,VALID,97.2816,VALID,0,VALID,18.3918,VALID,192,VALID,0.578742,
1999-12-29, 01:06:00,VALID,0,VALID,96.3711,VALID,-0.0169808,VALID,18.3592,VALID,163,VALID,0.731291,
1999-12-29, 01:07:00,VALID,0,VALID,97.0565,VALID,0.0509425,VALID,18.401,VALID,196,VALID,1.09629,
1999-12-29, 01:08:00,VALID,0,VALID,97.761,VALID,0.0679233,VALID,18.5002,VALID,195,VALID,1.12155,
1999-12-29, 01:09:00,VALID,0,VALID,97.1112,VALID,0.0509425,VALID,18.5164,VALID,188,VALID,1.04223,
1999-12-29, 01:10:00,VALID,0,VALID,96.7233,VALID,0.0679233,VALID,18.5293,VALID,173,VALID,0.827895,
1999-12-29, 01:11:00,VALID,0,VALID,96.6674,VALID,0.0509425,VALID,18.5032,VALID,172,VALID,0.7602,
1999-12-29, 01:12:00,VALID,0,VALID,96.4131,VALID,0.101885,VALID,18.4585,VALID,175,VALID,0.797903,
1999-12-29, 01:13:00,VALID,0,VALID,97.0514,VALID,0.0849042,VALID,18.4557,VALID,190,VALID,0.895559,
1999-12-29, 01:14:00,VALID,0,VALID,97.2727,VALID,0.0509425,VALID,18.4356,VALID,191,VALID,1.06288,
1999-12-29, 01:15:00,VALID,0,VALID,97.5333,VALID,0.0679233,VALID,18.4682,VALID,182,VALID,0.757813,
1999-12-29, 01:16:00,VALID,0,VALID,97.1646,VALID,0.0509425,VALID,18.4324,VALID,188,VALID,0.705025,
1999-12-29, 01:17:00,VALID,0,VALID,96.9153,VALID,0.0339617,VALID,18.4003,VALID,196,VALID,0.676398,
1999-12-29, 01:18:00,VALID,0,VALID,97.0311,VALID,0.0849042,VALID,18.365,VALID,221,VALID,0.565234,
1999-12-29, 01:19:00,VALID,0,VALID,97.3566,VALID,0,VALID,18.332,VALID,225,VALID,0.879645,
1999-12-29, 01:20:01,VALID,0,VALID,97.5982,VALID,0.0339617,VALID,18.313,VALID,233,VALID,0.758003,
1999-12-29, 01:21:00,VALID,0,VALID,97.7737,VALID,0.0679233,VALID,18.2775,VALID,245,VALID,0.664063,
1999-12-29, 01:22:00,VALID,0,VALID,98.0242,VALID,0.0339617,VALID,18.2553,VALID,256,VALID,0.671875,
1999-12-29, 01:23:00,VALID,0,VALID,98.1869,VALID,0.0679233,VALID,18.2223,VALID,272,VALID,0.260417,
1999-12-29, 01:24:00,VALID,0,VALID,98.3904,VALID,0.0509425,VALID,18.2232,VALID,241,VALID,0.408512,
1999-12-29, 01:25:00,VALID,0,VALID,98.5036,VALID,0.0339617,VALID,18.2163,VALID,230,VALID,0.15266,
1999-12-29, 01:26:00,VALID,0,VALID,98.5137,VALID,0.0509425,VALID,18.1868,VALID,234,VALID,0.0396793,
1999-12-29, 01:27:00,VALID,0,VALID,98.44,VALID,0.0339617,VALID,18.1549,VALID,255,VALID,0.253405,
1999-12-29, 01:28:00,VALID,0,VALID,98.44,VALID,0.0339617,VALID,18.1321,VALID,260,VALID,0.0352564,
1999-12-29, 01:29:00,VALID,0,VALID,98.4502,VALID,0.0169808,VALID,18.1097,VALID,270,VALID,0.222957,
1999-12-29, 01:30:00,VALID,0,VALID,98.4629,VALID,0.0339617,VALID,18.1004,VALID,272,VALID,0.0133635,
1999-12-29, 01:31:00,VALID,0,VALID,98.501,VALID,0.0169808,VALID,18.0771,VALID,253,VALID,0.214258,
1999-12-29, 01:32:00,VALID,0,VALID,98.5265,VALID,0.0169808,VALID,18.0843,VALID,212,VALID,0.146793,
1999-12-29, 01:33:00,VALID,0,VALID,98.4807,VALID,0.0169808,VALID,18.0575,VALID,258,VALID,0.247179,
1999-12-29, 01:34:00,VALID,0,VALID,98.4184,VALID,0,VALID,18.0483,VALID,257,VALID,0.181891,
1999-12-29, 01:35:00,VALID,0,VALID,98.262,VALID,0,VALID,18.0291,VALID,213,VALID,0.497944,
1999-12-29, 01:36:00,VALID,0,VALID,98.3103,VALID,0,VALID,18.0229,VALID,168,VALID,0.713605,
1999-12-29, 01:37:00,VALID,0,VALID,97.8589,VALID,-0.0169808,VALID,17.9391,VALID,134,VALID,0.593539,
1999-12-29, 01:38:00,VALID,0,VALID,97.4685,VALID,-0.101885,VALID,17.8431,VALID,123,VALID,0.686899,
1999-12-29, 01:39:00,VALID,0,VALID,97.9949,VALID,-0.101885,VALID,17.8818,VALID,133,VALID,0.620271,
1999-12-29, 01:40:00,VALID,0,VALID,98.1755,VALID,-0.0509425,VALID,17.9045,VALID,133,VALID,0.551943,
1999-12-29, 01:41:00,VALID,0,VALID,98.2849,VALID,-0.0679233,VALID,17.9236,VALID,168,VALID,0.650493,
1999-12-29, 01:42:01,VALID,0,VALID,98.3879,VALID,-0.0679233,VALID,17.9691,VALID,165,VALID,0.580387,
1999-12-29, 01:43:00,VALID,0,VALID,97.602,VALID,-0.0679233,VALID,17.8786,VALID,140,VALID,0.531836,
1999-12-29, 01:44:00,VALID,0,VALID,97.8538,VALID,-0.0509425,VALID,17.895,VALID,118,VALID,0.815487,
1999-12-29, 01:45:00,VALID,0,VALID,98.1183,VALID,-0.0679233,VALID,17.9273,VALID,121,VALID,0.868304,
1999-12-29, 01:46:00,VALID,0,VALID,98.1412,VALID,-0.101885,VALID,17.9206,VALID,117,VALID,0.942325,
1999-12-29, 01:47:00,VALID,0,VALID,98.173,VALID,-0.0679233,VALID,17.9144,VALID,106,VALID,1.11437,
1999-12-29, 01:48:00,VALID,0,VALID,98.0839,VALID,-0.0849042,VALID,17.8918,VALID,107,VALID,1.25411,
1999-12-29, 01:49:00,VALID,0,VALID,98.5239,VALID,-0.0679233,VALID,17.9693,VALID,104,VALID,1.35197,
1999-12-29, 01:50:00,VALID,0,VALID,98.4044,VALID,-0.0509425,VALID,17.9629,VALID,106,VALID,1.14272,
1999-12-29, 01:51:00,VALID,0,VALID,98.44,VALID,-0.0849042,VALID,17.9885,VALID,109,VALID,0.892736,
1999-12-29, 01:52:01,VALID,0,VALID,98.5481,VALID,-0.0509425,VALID,18.0243,VALID,109,VALID,0.670819,
1999-12-29, 01:53:01,VALID,0,VALID,98.6473,VALID,-0.0679233,VALID,18.0663,VALID,111,VALID,0.616365,
1999-12-29, 01:54:00,VALID,0,VALID,98.6854,VALID,-0.0679233,VALID,18.1083,VALID,114,VALID,0.283398,
1999-12-29, 01:55:00,VALID,0,VALID,98.632,VALID,-0.0849042,VALID,18.1111,VALID,113,VALID,0.0259713,
1999-12-29, 01:56:00,VALID,0,VALID,98.6078,VALID,-0.0339617,VALID,18.1304,VALID,113,VALID,0.0163872,
1999-12-29, 01:57:00,VALID,0,VALID,98.5417,VALID,-0.0849042,VALID,18.154,VALID,113,VALID,0.266258,
1999-12-29, 01:58:00,VALID,0,VALID,98.0382,VALID,-0.0849042,VALID,18.079,VALID,113,VALID,0.293285,
1999-12-29, 01:59:00,VALID,0,VALID,97.5003,VALID,-0.0509425,VALID,18.0208,VALID,113,VALID,0.346354,
1999-12-29, 02:00:00,VALID,0,VALID,97.7165,VALID,-0.0849042,VALID,18.0406,VALID,119,VALID,0.388158,
1999-12-29, 02:01:00,VALID,0,VALID,97.85,VALID,-0.0169808,VALID,18.0273,VALID,127,VALID,0.689611,
1999-12-29, 02:02:00,VALID,0,VALID,97.6134,VALID,-0.0679233,VALID,17.9756,VALID,130,VALID,0.821135,
1999-12-29, 02:03:00,VALID,0,VALID,97.2841,VALID,-0.0679233,VALID,17.9019,VALID,134,VALID,0.805288,
1999-12-29, 02:04:01,VALID,0,VALID,97.8627,VALID,-0.0679233,VALID,17.898,VALID,143,VALID,0.806691,
1999-12-29, 02:05:00,VALID,0,VALID,98.4031,VALID,-0.0849042,VALID,17.9402,VALID,158,VALID,0.879808,
1999-12-29, 02:06:00,VALID,0,VALID,98.6256,VALID,-0.0679233,VALID,17.9661,VALID,170,VALID,0.858553,
1999-12-29, 02:07:00,VALID,0,VALID,98.2175,VALID,-0.101885,VALID,17.9047,VALID,156,VALID,0.933789,
1999-12-29, 02:08:00,VALID,0,VALID,97.8627,VALID,-0.0169808,VALID,17.7948,VALID,159,VALID,0.866982,
1999-12-29, 02:09:00,VALID,0,VALID,98.4375,VALID,-0.0339617,VALID,17.8142,VALID,172,VALID,0.764106,
1999-12-29, 02:10:00,VALID,0,VALID,98.5786,VALID,-0.0339617,VALID,17.8368,VALID,168,VALID,0.714543,
1999-12-29, 02:11:00,VALID,0,VALID,98.6218,VALID,-0.101885,VALID,17.8403,VALID,172,VALID,0.690789,
1999-12-29, 02:12:00,VALID,0,VALID,98.3993,VALID,-0.0339617,VALID,17.8045,VALID,165,VALID,0.852515,
1999-12-29, 02:13:00,VALID,0,VALID,98.6969,VALID,-0.0509425,VALID,17.876,VALID,171,VALID,0.947424,
1999-12-29, 02:14:00,VALID,0,VALID,98.7579,VALID,-0.0679233,VALID,17.9245,VALID,169,VALID,0.820513,
1999-12-29, 02:15:01,VALID,0,VALID,98.4286,VALID,-0.0169808,VALID,17.9407,VALID,164,VALID,0.567229,
1999-12-29, 02:16:00,VALID,0,VALID,97.7393,VALID,-0.0509425,VALID,17.8721,VALID,144,VALID,0.535895,
1999-12-29, 02:17:00,VALID,0,VALID,98.1882,VALID,-0.0679233,VALID,17.9536,VALID,163,VALID,0.9081,
1999-12-29, 02:18:00,VALID,0,VALID,97.8411,VALID,-0.0169808,VALID,17.9534,VALID,154,VALID,0.649465,
1999-12-29, 02:19:00,VALID,0,VALID,97.6427,VALID,-0.101885,VALID,17.9314,VALID,157,VALID,0.788867,
1999-12-29, 02:20:00,VALID,0,VALID,97.7482,VALID,-0.0679233,VALID,17.9275,VALID,147,VALID,0.93727,
1999-12-29, 02:21:00,VALID,0,VALID,97.8678,VALID,-0.0509425,VALID,17.9116,VALID,168,VALID,0.960304,
1999-12-29, 02:22:00,VALID,0,VALID,98.4108,VALID,0,VALID,17.9755,VALID,170,VALID,0.966912,
1999-12-29, 02:23:00,VALID,0,VALID,98.5773,VALID,0.0509425,VALID,18.043,VALID,181,VALID,1.17014,
1999-12-29, 02:24:00,VALID,0,VALID,98.3573,VALID,0.0849042,VALID,18.1046,VALID,161,VALID,1.22204,
1999-12-29, 02:25:00,VALID,0,VALID,97.5626,VALID,0.0169808,VALID,18.0688,VALID,148,VALID,0.9044,
1999-12-29, 02:26:01,VALID,0,VALID,97.9263,VALID,0.0339617,VALID,18.1332,VALID,176,VALID,0.921303,
1999-12-29, 02:27:00,VALID,0,VALID,97.9848,VALID,0.0339617,VALID,18.1685,VALID,172,VALID,0.909628,
1999-12-29, 02:28:00,VALID,0,VALID,97.9415,VALID,0.0339617,VALID,18.1944,VALID,180,VALID,1.11803,
1999-12-29, 02:29:00,VALID,0,VALID,97.8271,VALID,0.0509425,VALID,18.2396,VALID,176,VALID,0.988487,
1999-12-29, 02:30:00,VALID,0,VALID,97.5372,VALID,0.0849042,VALID,18.2528,VALID,180,VALID,0.933789,
1999-12-29, 02:31:00,VALID,0,VALID,97.4647,VALID,0.0509425,VALID,18.2687,VALID,186,VALID,0.788429,
1999-12-29, 02:32:00,VALID,0,VALID,97.4799,VALID,0.0339617,VALID,18.2911,VALID,205,VALID,0.806593,
1999-12-29, 02:33:00,VALID,0,VALID,97.4647,VALID,0.0339617,VALID,18.3338,VALID,208,VALID,0.933699,
1999-12-29, 02:34:00,VALID,0,VALID,96.9955,VALID,0.0679233,VALID,18.3269,VALID,201,VALID,0.838049,
1999-12-29, 02:35:00,VALID,0,VALID,97.0438,VALID,0.0679233,VALID,18.356,VALID,206,VALID,1.38722,
1999-12-29, 02:36:00,VALID,0,VALID,96.9726,VALID,0.0339617,VALID,18.3721,VALID,191,VALID,1.04544,
1999-12-29, 02:37:01,VALID,0,VALID,96.7068,VALID,-0.0169808,VALID,18.3885,VALID,186,VALID,0.873733,
1999-12-29, 02:38:00,VALID,0,VALID,96.956,VALID,-0.0849042,VALID,18.4026,VALID,201,VALID,0.881785,
1999-12-29, 02:39:00,VALID,0,VALID,96.8111,VALID,-0.0509425,VALID,18.4185,VALID,207,VALID,0.75621,
1999-12-29, 02:40:00,VALID,0,VALID,96.7348,VALID,0,VALID,18.4511,VALID,214,VALID,1.35016,
1999-12-29, 02:41:00,VALID,0,VALID,96.3953,VALID,-0.0849042,VALID,18.4931,VALID,227,VALID,1.39403,
1999-12-29, 02:42:00,VALID,0,VALID,95.9031,VALID,-0.0339617,VALID,18.5608,VALID,223,VALID,1.35629,
1999-12-29, 02:43:00,VALID,0,VALID,95.4009,VALID,-0.0509425,VALID,18.645,VALID,212,VALID,0.981055,
1999-12-29, 02:44:00,VALID,0,VALID,95.205,VALID,-0.101885,VALID,18.6709,VALID,220,VALID,1.34704,
1999-12-29, 02:45:00,VALID,0,VALID,95.069,VALID,-0.0339617,VALID,18.7062,VALID,227,VALID,0.79796,
1999-12-29, 02:46:00,VALID,0,VALID,94.7879,VALID,-0.0339617,VALID,18.6997,VALID,220,VALID,1.04387,
1999-12-29, 02:47:00,VALID,0,VALID,94.9736,VALID,-0.0169808,VALID,18.6863,VALID,221,VALID,1.22903,
1999-12-29, 02:48:00,VALID,0,VALID,94.9444,VALID,-0.0679233,VALID,18.6739,VALID,221,VALID,1.04954,
1999-12-29, 02:49:00,VALID,0,VALID,94.9189,VALID,-0.0849042,VALID,18.6351,VALID,200,VALID,0.857686,
1999-12-29, 02:50:00,VALID,0,VALID,95.0982,VALID,-0.0339617,VALID,18.6122,VALID,208,VALID,0.919471,
1999-12-29, 02:51:00,VALID,0,VALID,95.3691,VALID,-0.0339617,VALID,18.5963,VALID,215,VALID,1.20806,
1999-12-29, 02:52:00,VALID,0,VALID,95.411,VALID,-0.0509425,VALID,18.5963,VALID,223,VALID,1.14358,
1999-12-29, 02:53:00,VALID,0,VALID,95.4047,VALID,-0.0169808,VALID,18.6032,VALID,211,VALID,1.31723,
1999-12-29, 02:54:00,VALID,0,VALID,95.2279,VALID,-0.0339617,VALID,18.6159,VALID,205,VALID,1.09437,
1999-12-29, 02:55:00,VALID,0,VALID,94.8464,VALID,-0.0339617,VALID,18.6379,VALID,202,VALID,1.15781,
1999-12-29, 02:56:00,VALID,0,VALID,94.6137,VALID,-0.0339617,VALID,18.6868,VALID,201,VALID,1.01654,
1999-12-29, 02:57:00,VALID,0,VALID,94.4141,VALID,-0.0339617,VALID,18.7092,VALID,201,VALID,0.752534,
1999-12-29, 02:58:00,VALID,0,VALID,94.2666,VALID,-0.0169808,VALID,18.7187,VALID,207,VALID,1.09306,
1999-12-29, 02:59:00,VALID,0,VALID,94.0466,VALID,-0.0339617,VALID,18.7485,VALID,198,VALID,0.846137,
1999-12-29, 03:00:00,VALID,0,VALID,93.9614,VALID,-0.0169808,VALID,18.7607,VALID,203,VALID,1.00802,
1999-12-29, 03:01:00,VALID,0,VALID,93.6931,VALID,-0.0339617,VALID,18.7704,VALID,189,VALID,0.789885,
1999-12-29, 03:02:00,VALID,0,VALID,93.8012,VALID,-0.0169808,VALID,18.7806,VALID,214,VALID,0.695694,
1999-12-29, 03:03:00,VALID,0,VALID,93.88,VALID,-0.0509425,VALID,18.7803,VALID,218,VALID,0.242188,
1999-12-29, 03:04:00,VALID,0,VALID,93.557,VALID,-0.0509425,VALID,18.7676,VALID,196,VALID,0.285895,
1999-12-29, 03:05:00,VALID,0,VALID,93.964,VALID,-0.0169808,VALID,18.7256,VALID,189,VALID,0.422697,
1999-12-29, 03:06:00,VALID,0,VALID,94.6214,VALID,-0.0169808,VALID,18.6737,VALID,191,VALID,0.589648,
1999-12-29, 03:07:00,VALID,0,VALID,94.8859,VALID,-0.0849042,VALID,18.6446,VALID,174,VALID,0.783361,
1999-12-29, 03:08:01,VALID,0,VALID,94.5896,VALID,-0.0169808,VALID,18.5633,VALID,166,VALID,0.643293,
1999-12-29, 03:09:00,VALID,0,VALID,95.7849,VALID,-0.0339617,VALID,18.5411,VALID,178,VALID,0.73712,
1999-12-29, 03:10:00,VALID,0,VALID,95.7467,VALID,-0.0339617,VALID,18.5215,VALID,175,VALID,0.608108,
1999-12-29, 03:11:00,VALID,0,VALID,94.9774,VALID,0,VALID,18.4636,VALID,168,VALID,0.507612,
1999-12-29, 03:12:00,VALID,0,VALID,94.573,VALID,-0.0679233,VALID,18.3375,VALID,165,VALID,0.313322,
1999-12-29, 03:13:00,VALID,0,VALID,93.9843,VALID,-0.0339617,VALID,18.1824,VALID,125,VALID,0.905194,
1999-12-29, 03:14:00,VALID,0,VALID,95.4759,VALID,0,VALID,18.043,VALID,125,VALID,0.928043,
1999-12-29, 03:15:00,VALID,0,VALID,96.5046,VALID,-0.0169808,VALID,18.0176,VALID,133,VALID,0.780849,
1999-12-29, 03:16:00,VALID,0,VALID,96.881,VALID,-0.0679233,VALID,18.0049,VALID,145,VALID,0.722356,
1999-12-29, 03:17:00,VALID,0,VALID,97.705,VALID,-0.0509425,VALID,18.0531,VALID,164,VALID,0.963542,
1999-12-29, 03:18:00,VALID,0,VALID,98.0433,VALID,-0.0339617,VALID,18.1632,VALID,182,VALID,0.966077,
1999-12-29, 03:19:00,VALID,0,VALID,97.85,VALID,-0.0509425,VALID,18.2666,VALID,194,VALID,0.850977,
1999-12-29, 03:20:00,VALID,0,VALID,97.4545,VALID,-0.0339617,VALID,18.3472,VALID,187,VALID,0.93565,
1999-12-29, 03:21:00,VALID,0,VALID,96.8212,VALID,-0.0679233,VALID,18.4379,VALID,173,VALID,0.735894,
1999-12-29, 03:22:00,VALID,0,VALID,95.9922,VALID,-0.0339617,VALID,18.4767,VALID,156,VALID,0.660657,
1999-12-29, 03:23:00,VALID,0,VALID,96.0138,VALID,-0.0339617,VALID,18.5056,VALID,148,VALID,0.869243,
1999-12-29, 03:24:00,VALID,0,VALID,95.8129,VALID,-0.0509425,VALID,18.5093,VALID,153,VALID,0.745427,
1999-12-29, 03:25:00,VALID,0,VALID,95.8065,VALID,-0.0169808,VALID,18.4961,VALID,149,VALID,0.418074,
1999-12-29, 03:26:00,VALID,0,VALID,95.2839,VALID,-0.0169808,VALID,18.4472,VALID,122,VALID,0.504207,
1999-12-29, 03:27:00,VALID,0,VALID,95.0397,VALID,-0.0679233,VALID,18.386,VALID,116,VALID,0.286184,
1999-12-29, 03:28:00,VALID,0,VALID,95.6882,VALID,-0.0339617,VALID,18.3636,VALID,140,VALID,0.413429,
1999-12-29, 03:29:00,VALID,0,VALID,96.1269,VALID,-0.0509425,VALID,18.3509,VALID,154,VALID,0.210938,
1999-12-29, 03:30:00,VALID,0,VALID,96.4372,VALID,-0.0679233,VALID,18.338,VALID,155,VALID,0,
1999-12-29, 03:31:00,VALID,0,VALID,96.4805,VALID,-0.0339617,VALID,18.3248,VALID,157,VALID,0,
1999-12-29, 03:32:00,VALID,0,VALID,96.525,VALID,-0.0339617,VALID,18.3087,VALID,164,VALID,0,
1999-12-29, 03:33:00,VALID,0,VALID,96.6598,VALID,-0.0339617,VALID,18.3117,VALID,171,VALID,0,
1999-12-29, 03:34:00,VALID,0,VALID,96.633,VALID,-0.0509425,VALID,18.299,VALID,177,VALID,0,
1999-12-29, 03:35:00,VALID,0,VALID,96.4436,VALID,-0.0509425,VALID,18.2537,VALID,200,VALID,0,
1999-12-29, 03:36:00,VALID,0,VALID,96.6763,VALID,-0.0509425,VALID,18.244,VALID,201,VALID,0,
1999-12-29, 03:37:00,VALID,0,VALID,96.5606,VALID,-0.0849042,VALID,18.2246,VALID,201,VALID,0,
1999-12-29, 03:38:00,VALID,0,VALID,96.0837,VALID,-0.0679233,VALID,18.1632,VALID,201,VALID,0,
1999-12-29, 03:39:00,VALID,0,VALID,96.7055,VALID,-0.0679233,VALID,18.1341,VALID,201,VALID,0.240498,
1999-12-29, 03:40:00,VALID,0,VALID,97.0819,VALID,-0.0509425,VALID,18.108,VALID,201,VALID,0.438133,
1999-12-29, 03:41:00,VALID,0,VALID,96.9713,VALID,-0.0679233,VALID,18.0727,VALID,201,VALID,0.490337,
1999-12-29, 03:42:00,VALID,0,VALID,97.0883,VALID,-0.0509425,VALID,18.0337,VALID,201,VALID,0.219531,
1999-12-29, 03:43:00,VALID,0,VALID,97.1926,VALID,-0.0339617,VALID,18.0116,VALID,201,VALID,0,
1999-12-29, 03:44:00,VALID,0,VALID,97.3108,VALID,-0.0339617,VALID,17.9852,VALID,201,VALID,0,
1999-12-29, 03:45:00,VALID,0,VALID,97.4685,VALID,-0.0849042,VALID,17.9663,VALID,201,VALID,0,
1999-12-29, 03:46:00,VALID,0,VALID,97.5003,VALID,-0.0169808,VALID,17.937,VALID,201,VALID,0,
1999-12-29, 03:47:00,VALID,0,VALID,97.5397,VALID,-0.0169808,VALID,17.9308,VALID,201,VALID,0,
1999-12-29, 03:48:00,VALID,0,VALID,97.6351,VALID,-0.0169808,VALID,17.9308,VALID,201,VALID,0,
1999-12-29, 03:49:00,VALID,0,VALID,97.5575,VALID,-0.0169808,VALID,17.9049,VALID,204,VALID,0,
1999-12-29, 03:50:00,VALID,0,VALID,97.6808,VALID,-0.0339617,VALID,17.8786,VALID,246,VALID,0,
1999-12-29, 03:51:00,VALID,0,VALID,97.8449,VALID,-0.0169808,VALID,17.8918,VALID,246,VALID,0,
1999-12-29, 03:52:00,VALID,0,VALID,97.5066,VALID,-0.0339617,VALID,17.8304,VALID,232,VALID,0,
1999-12-29, 03:53:00,VALID,0,VALID,97.471,VALID,0,VALID,17.7683,VALID,216,VALID,0,
1999-12-29, 03:54:00,VALID,0,VALID,97.8029,VALID,0.0169808,VALID,17.7586,VALID,201,VALID,0,
1999-12-29, 03:55:00,VALID,0,VALID,98.1361,VALID,0,VALID,17.7715,VALID,196,VALID,0,
1999-12-29, 03:56:00,VALID,0,VALID,98.3434,VALID,0,VALID,17.7653,VALID,196,VALID,0,
1999-12-29, 03:57:00,VALID,0,VALID,98.5188,VALID,0.0169808,VALID,17.7944,VALID,195,VALID,0,
1999-12-29, 03:58:00,VALID,0,VALID,98.6256,VALID,0.0169808,VALID,17.8043,VALID,184,VALID,0,
1999-12-29, 03:59:00,VALID,0,VALID,98.8037,VALID,0.0169808,VALID,17.8198,VALID,189,VALID,0,
1999-12-29, 04:00:00,VALID,0,VALID,98.8215,VALID,0.0169808,VALID,17.856,VALID,180,VALID,0,
1999-12-29, 04:01:00,VALID,0,VALID,98.6981,VALID,0.0169808,VALID,17.8456,VALID,190,VALID,0,